Location: Unspecified
(0.0000°N, 0.0000°E)
Time: 13:41:50
(UTC+00:00)

DMSP 5D-2 F13 DEB - Visible Passes

Search period start: 23 February 2024 00:00
Search period end: 04 March 2024 00:00
Orbit: 751 x 756 km, 98.7° (Epoch: 22 February)

Date Brightness Start Highest point End Pass type
(mag) Time Alt. Az. Time Alt. Az. Time Alt. Az.
23 Feb ? 19:39:12 10° SSE 19:44:13 71° ENE 19:49:12 10° N visible
24 Feb ? 19:00:15 10° SE 19:04:04 22° ENE 19:07:52 10° NNE visible
24 Feb ? 20:38:45 10° SSW 20:42:30 21° WSW 20:46:15 10° NW visible
25 Feb ? 19:57:21 10° S 20:02:21 69° WSW 20:07:20 10° NNW visible
26 Feb ? 19:17:34 10° SE 19:22:09 36° ENE 19:26:43 10° NNE visible
26 Feb ? 20:58:29 10° SW 21:00:34 13° WSW 21:02:39 10° WNW visible
27 Feb ? 18:40:34 10° E 18:41:58 11° ENE 18:43:21 10° ENE visible
27 Feb ? 20:15:42 10° S 20:20:23 40° WSW 20:25:04 10° NNW visible
28 Feb ? 19:35:11 10° SSE 19:40:08 61° ENE 19:45:05 10° N visible
29 Feb ? 18:56:23 10° ESE 18:59:52 19° ENE 19:03:22 10° NNE visible
29 Feb ? 20:34:17 10° SSW 20:38:18 24° WSW 20:42:19 10° NW visible
01 Mar ? 19:53:00 10° S 19:58:02 80° WSW 20:03:02 10° NNW visible
02 Mar ? 19:13:18 10° SE 19:17:42 31° ENE 19:22:06 10° NNE visible
02 Mar ? 20:53:24 10° SW 20:56:08 15° WSW 20:58:51 10° WNW visible
03 Mar ? 20:11:00 10° S 20:15:48 47° WSW 20:20:36 10° NNW visible
